GW1994 Weather Reports


Display with metric or nautical units.
time (UTC)temp
F
wind
direction
speed
MPH
gust
MPH
rain 1hr
in
rain 24hr
in
rain mn
in
humidity
%
barometer
mb
20260508023040 83 272 1.0 3.0 0.00 0.00 0.00 11 1010.1
20260508021557 84 272 2.0 6.0 0.00 0.00 0.00 11 1009.9
20260508020047 85 279 3.0 9.0 0.00 0.00 0.00 11 1009.7
20260508014552 87 274 4.0 10.0 0.00 0.00 0.00 11 1009.5
20260508013043 88 267 2.0 9.0 0.00 0.00 0.00 11 1009.5
20260508011548 89 255 5.0 13.0 0.00 0.00 0.00 11 1009.6
20260508010049 90 255 2.0 11.0 0.00 0.00 0.00 11 1009.5
20260508004550 92 0 1.0 7.0 0.00 0.00 0.00 10 1009.5
20260508003040 92 275 5.0 10.0 0.00 0.00 0.00 10 1009.4
20260508001550 94 258 3.0 6.0 0.00 0.00 0.00 10 1009.3
20260508000038 93 260 4.0 11.0 0.00 0.00 0.00 11 1009.4
20260507234544 93 255 0.0 10.0 0.00 0.00 0.00 10 1009.4
20260507233043 94 265 3.0 10.0 0.00 0.00 0.00 10 1009.5
20260507231543 95 245 1.0 5.0 0.00 0.00 0.00 10 1009.2
20260507230045 94 0 0.0 6.0 0.00 0.00 0.00 9 1009.5
20260507224552 92 258 0.0 6.0 0.00 0.00 0.00 10 1009.7
20260507223043 93 0 0.0 6.0 0.00 0.00 0.00 9 1009.8
20260507221549 95 0 3.0 6.0 0.00 0.00 0.00 9 1009.9
20260507220054 93 216 0.0 9.0 0.00 0.00 0.00 10 1010.2
20260507214545 94 0 1.0 5.0 0.00 0.00 0.00 8 1010.3
20260507213045 93 348 1.0 5.0 0.00 0.00 0.00 8 1010.5
20260507211543 92 0 0.0 5.0 0.00 0.00 0.00 10 1010.9
20260507210050 92 28 2.0 5.0 0.00 0.00 0.00 10 1011.1
20260507204549 94 18 0.0 8.0 0.00 0.00 0.00 9 1011.2
20260507203112 94 274 2.0 9.0 0.00 0.00 0.00 12 1011.4
20260507201544 93 8 2.0 6.0 0.00 0.00 0.00 13 1011.5
20260507200041 92 338 0.0 5.0 0.00 0.00 0.00 14 1011.8
20260507194600 92 283 2.0 8.0 0.00 0.00 0.00 16 1012.0
20260507193047 92 343 1.0 4.0 0.00 0.00 0.00 16 1012.1
20260507191547 90 43 0.0 6.0 0.00 0.00 0.00 16 1012.5
20260507190053 89 27 0.0 5.0 0.00 0.00 0.00 15 1012.7
20260507184540 89 301 1.0 5.0 0.00 0.00 0.00 19 1012.9
20260507183047 88 293 1.0 4.0 0.00 0.00 0.00 19 1013.1
20260507181546 86 334 0.0 4.0 0.00 0.00 0.00 17 1013.2
20260507180045 86 23 1.0 5.0 0.00 0.00 0.00 19 1013.2
20260507174546 85 0 0.0 8.0 0.00 0.00 0.00 19 1013.4
20260507173110 84 180 0.0 3.0 0.00 0.00 0.00 18 1013.6
20260507171542 83 183 0.0 5.0 0.00 0.00 0.00 20 1013.6
20260507170049 82 163 0.0 2.0 0.00 0.00 0.00 20 1013.8
20260507164545 80 0 0.0 2.0 0.00 0.00 0.00 21 1013.9
20260507163044 79 164 0.0 3.0 0.00 0.00 0.00 21 1013.9
20260507161548 77 0 1.0 3.0 0.00 0.00 0.00 22 1014.0
20260507160059 76 164 1.0 3.0 0.00 0.00 0.00 23 1014.3
20260507154556 74 0 0.0 1.0 0.00 0.00 0.00 25 1014.3
20260507153048 71 0 0.0 2.0 0.00 0.00 0.00 25 1014.3
20260507151544 68 159 0.0 3.0 0.00 0.00 0.00 29 1014.2
20260507150044 64 158 1.0 3.0 0.00 0.00 0.00 32 1014.4
20260507144600 62 158 1.0 4.0 0.00 0.00 0.00 34 1014.4
20260507143056 60 0 1.0 4.0 0.00 0.00 0.00 35 1014.3
20260507141555 57 0 0.0 2.0 0.00 0.00 0.00 38 1014.4
20260507140043 55 227 0.0 3.0 0.00 0.00 0.00 40 1014.3
20260507134552 54 0 0.0 4.0 0.00 0.00 0.00 40 1014.2
20260507133125 53 0 1.0 4.0 0.00 0.00 0.00 38 1014.1
20260507131544 52 0 0.0 3.0 0.00 0.00 0.00 41 1014.0
20260507130058 51 0 0.0 3.0 0.00 0.00 0.00 41 1013.8
20260507124548 51 0 0.0 1.0 0.00 0.00 0.00 40 1013.9
20260507123052 51 0 0.0 1.0 0.00 0.00 0.00 40 1013.8
20260507121549 51 268 0.0 2.0 0.00 0.00 0.00 40 1013.7
20260507120038 52 0 0.0 2.0 0.00 0.00 0.00 38 1013.6
20260507114547 52 268 0.0 2.0 0.00 0.00 0.00 38 1013.7
20260507113044 52 0 0.0 2.0 0.00 0.00 0.00 38 1013.7
20260507111543 53 0 0.0 0.0 0.00 0.00 0.00 38 1013.7
20260507110044 53 0 0.0 2.0 0.00 0.00 0.00 37 1013.8
20260507104547 54 0 0.0 2.0 0.00 0.00 0.00 37 1014.0
20260507103044 54 268 0.0 1.0 0.00 0.00 0.00 35 1014.1
20260507101547 55 0 0.0 1.0 0.00 0.00 0.00 35 1014.1
20260507100042 56 0 0.0 2.0 0.00 0.00 0.00 35 1014.2
20260507094552 56 268 0.0 2.0 0.00 0.00 0.00 34 1014.4
20260507093038 57 268 0.0 1.0 0.00 0.00 0.00 37 1014.3
20260507091545 58 0 0.0 0.0 0.00 0.00 0.00 36 1014.3
20260507090045 59 0 0.0 0.0 0.00 0.00 0.00 33 1014.3
20260507084549 60 0 0.0 0.0 0.00 0.00 0.00 33 1014.4
20260507083048 61 0 0.0 1.0 0.00 0.00 0.00 32 1014.5
20260507081547 61 268 0.0 2.0 0.00 0.00 0.00 31 1014.5
20260507080052 62 0 0.0 0.0 0.00 0.00 0.00 32 1014.6
20260507074550 61 0 0.0 1.0 0.00 0.00 0.00 33 1014.5
20260507073101 59 0 0.0 2.0 0.00 0.00 0.00 35 1014.5
20260507071540 59 0 0.0 0.0 0.00 0.00 0.00 36 1014.6
20260507070056 60 0 0.0 0.0 0.00 0.00 0.00 37 1014.6
20260507064555 60 0 0.0 0.0 0.00 0.00 0.00 37 1014.6
20260507063046 60 0 0.0 0.0 0.00 0.00 0.00 38 1014.7
20260507061541 61 0 0.0 0.0 0.00 0.00 0.00 38 1014.7
20260507060041 61 0 0.0 1.0 0.00 0.00 0.00 38 1014.7
20260507054539 61 0 0.0 0.0 0.00 0.00 0.00 34 1014.7
20260507053037 62 0 0.0 0.0 0.00 0.00 0.00 33 1014.7
20260507051545 62 0 0.0 0.0 0.00 0.00 0.00 31 1014.6
20260507050044 63 0 0.0 0.0 0.00 0.00 0.00 30 1014.5
20260507044551 64 0 0.0 0.0 0.00 0.00 0.00 28 1014.4
20260507043049 65 0 0.0 0.0 0.00 0.00 0.00 26 1014.4
20260507041544 66 0 0.0 0.0 0.00 0.00 0.00 25 1014.3
20260507040048 67 0 0.0 0.0 0.00 0.00 0.00 25 1014.0
20260507034545 68 0 0.0 0.0 0.00 0.00 0.00 23 1014.0
20260507033050 69 0 0.0 1.0 0.00 0.00 0.00 22 1013.8
20260507031556 70 0 0.0 0.0 0.00 0.00 0.00 22 1013.6
20260507030100 71 0 0.0 1.0 0.00 0.00 0.00 21 1013.5
20260507024604 72 0 0.0 1.0 0.00 0.00 0.00 21 1013.3